Aérodrome :
LOGIN :

S'inscrire | Disclaimer

   EN    FR    IT 

 










Légende :    VFR   VFR Marginal   IFR   IFR Intensif   IFR Très Intensif
Visi : 
Plafond : 
>= 8 km
>= 3000ft
5 à 8 km
1000 à 3000 ft
1500m à 5 km
500 à 1000 ft
800 à 1500m
200 à 500 ft
< 800m
< 200 ft
Symboles :   Orages  Brouillard  Fortes neiges  Fortes précipitations  Vent > 20 kt
SIGMETs :   Divers  Orages  Givrage  Turbulence  Onde Orograph.  Cendres Volcan.






- Altitude de l'aérodrome : 324 ft
- Code IATA : KVB


ESGR - Skovde

DERNIER METAR :
  • 070950Z AUTO 21013KT 9999 SCT044/// 16/07 Q1004

METARs EXPIRÉS :
  • 070920Z AUTO 22014KT 9999 FEW046/// BKN062/// 15/07 Q1004
  • 070850Z AUTO 20013KT 9999 FEW035/// SCT061/// BKN096/// 14/07 Q1004
  • 070820Z AUTO 21012KT 9999 SCT033/// BKN062/// OVC092/// 14/07 Q1004
  • 070750Z AUTO 21014KT 9999 BKN032/// 13/08 Q1004
  • 070720Z AUTO 21014KT 9999 BKN029/// 13/07 Q1003

TAF N/A



MET'MAP, la Météo Aéronautique d'un coup d'oeil ! - Copyright ORBIFLY Décembre 2007 - Disclaimer

ORBIFLY MET'MAP TEAM :

Programmation & Développement : Alexandra Zaïnal
Sur une idée originale de : Baudouin d'Aumeries
Assistance à la programmation : Marc-Olivier Méhu
Soutien technique & logistique : Manuel Goepfert

Contact : metmap@orbifly.com




SOURCES & CREDITS :

   NOAA